Location: Unspecified
(0.0000°N, 0.0000°E)
Time: 20:06:22
(UTC+00:00)

OTV 5 (USA 277) - Pass Details

Date: 13 January 2018
Orbit: 404 x 417 km, 43.0° (Epoch: 07 September)

Event Time Altitude Azimuth Distance (km) Brightness Sun altitude
Rises 20:06:13 0° 236° (SW) 2,347 ? -27.2°
Reaches altitude 10° 20:08:24 10° 243° (WSW) 1,482 ? -27.7°
Enters shadow 20:09:45 21° 255° (WSW) 997 ? -28.0°
